Change the Weather History Date:

Thursday, October 21, 2010

  Actual Average Record
Temperature  
Mean Temperature 55 °F 61 °F  
Max Temperature 65 °F 75 °F 95 °F (1921)
Min Temperature 45 °F 46 °F 29 °F (1949)
Degree Days  
Heating Degree Days 10 5  
Month to date heating degree days 40 60  
Since 1 July heating degree days 40 66  
Cooling Degree Days 0 1  
Month to date cooling degree days 84 59  
Year to date cooling degree days 2149 2085  
Growing Degree Days 4 (Base 50)    
Moisture  
Dew Point 46 °F    
Average Humidity 74    
Maximum Humidity 100    
Minimum Humidity 48    
Precipitation  
Precipitation 0.00 in 0.02 in 0.86 in (1978)
Month to date precipitation 1.90 0.43  
Year to date precipitation 5.85 6.72  
Sea Level Pressure  
Sea Level Pressure 29.92 in    
Wind  
Wind Speed 6 mph (SSW)    
Max Wind Speed 16 mph    
Max Gust Speed 20 mph    
Visibility 10 miles    
Events      
T = Trace of Precipitation, MM = Missing Value Source: NWS Daily Summary

Daily Weather History Graph

Daily Weather History Graph

Search for Another Location

Airport or City:

Trip Planner

Search our weather history database for the weather conditions in past years. The results will help you decide how hot, cold, wet, or windy it might be!

Date:

Astronomy

Oct. 21, 2010 Rise Set
Actual Time 6:47 AM MST 5:53 PM MST
Civil Twilight 6:21 AM MST 6:18 PM MST
Nautical Twilight 5:51 AM MST 6:48 PM MST
Astronomical Twilight 5:22 AM MST 7:17 PM MST
Moon 4:55 PM MST (10/21) 5:31 AM MST (10/21)
Length of Visible Light 11h 57m
Length of Day
11h 05m
Waxing Gibbous, 98% of the Moon is Illuminated
Oct 21
Waxing Gibbous
Oct 22
Full
Oct 30
Last Quarter
Nov 5
New
Nov 13
First Quarter

Hourly Weather History & Observations

Time (MST) Temp. Dew Point Humidity Pressure Visibility Wind Dir Wind Speed Gust Speed Precip Events Conditions
12:48 AM 50.0 °F 46.9 °F 89% 29.96 in 10.0 mi ESE 5.8 mph - N/A   Mostly Cloudy
1:48 AM 48.9 °F 46.9 °F 93% 29.95 in 10.0 mi ESE 5.8 mph - N/A   Overcast
2:48 AM 48.0 °F 45.0 °F 89% 29.94 in 10.0 mi SE 8.1 mph - N/A   Clear
3:48 AM 46.9 °F 46.0 °F 97% 29.94 in 10.0 mi Calm Calm - N/A   Clear
4:48 AM 46.0 °F 44.1 °F 93% 29.94 in 10.0 mi Calm Calm - N/A   Clear
5:48 AM 46.9 °F 45.0 °F 93% 29.96 in 10.0 mi South 5.8 mph - N/A   Overcast
6:48 AM 46.9 °F 46.0 °F 97% 29.95 in 10.0 mi Calm Calm - N/A   Scattered Clouds
7:48 AM 48.0 °F 46.9 °F 96% 29.96 in 10.0 mi Calm Calm - N/A   Clear
8:48 AM 54.0 °F 48.9 °F 83% 29.96 in 10.0 mi Calm Calm - N/A   Clear
9:48 AM 57.0 °F 50.0 °F 77% 29.96 in 10.0 mi Calm Calm - N/A   Clear
10:48 AM 59.0 °F 46.0 °F 62% 29.96 in 10.0 mi WSW 6.9 mph - N/A   Clear
11:48 AM 60.1 °F 45.0 °F 57% 29.94 in 10.0 mi Variable 5.8 mph - N/A   Mostly Cloudy
12:48 PM 61.0 °F 45.0 °F 56% 29.92 in 10.0 mi Variable 6.9 mph - N/A   Mostly Cloudy
1:48 PM 63.0 °F 45.0 °F 52% 29.88 in 10.0 mi SW 9.2 mph 16.1 mph N/A   Mostly Cloudy
2:48 PM 63.0 °F 46.0 °F 54% 29.88 in 10.0 mi West 8.1 mph - N/A   Clear
3:48 PM 63.0 °F 43.0 °F 48% 29.88 in 10.0 mi SW 11.5 mph - N/A   Clear
4:48 PM 63.0 °F 46.0 °F 54% 29.88 in 10.0 mi SW 12.7 mph - N/A   Clear
5:48 PM 60.1 °F 46.0 °F 60% 29.88 in 10.0 mi SSW 10.4 mph - N/A   Clear
6:48 PM 57.9 °F 46.0 °F 65% 29.89 in 10.0 mi SSW 10.4 mph - N/A   Overcast
7:48 PM 57.0 °F 44.1 °F 62% 29.90 in 10.0 mi SSW 9.2 mph - N/A   Clear
8:48 PM 54.0 °F 44.1 °F 69% 29.90 in 10.0 mi SSW 8.1 mph - N/A   Clear
9:48 PM 54.0 °F 44.1 °F 69% 29.89 in 10.0 mi South 8.1 mph - N/A   Clear
10:48 PM 53.1 °F 45.0 °F 74% 29.90 in 10.0 mi SSE 6.9 mph - N/A   Clear
11:48 PM 51.1 °F 44.1 °F 77% 29.90 in 10.0 mi Calm Calm - N/A   Clear